Location: Observatory
(49.4490°N, 2.6360°W)
Time: 01:33:02
(UTC+01:00)

DIWATA 2B (PO-101) - Pass Details

Date: 23 April 2025
Orbit: 567 x 578 km, 98.1° (Epoch: 16 May)

Event Time Altitude Azimuth Distance (km) Brightness Sun altitude
Rises 05:12:19 0° 154° (SSE) 2,762 ? -8.2°
Reaches altitude 10° 05:14:28 10° 150° (SSE) 1,868 ? -7.9°
Maximum altitude 05:18:26 58° 72° (ENE) 666 ? -7.4°
Drops below altitude 10° 05:22:26 10° 353° (N) 1,879 ? -6.8°
Sets 05:24:37 0° 350° (N) 2,780 ? -6.5°
